COSMOS 1598

导读

**COSMOS 1598卫星摘要** COSMOS 1598是独联体(CIS,继承自苏联)于1984年9月13日发射的“宇宙”系列卫星,该系列是苏联/俄罗斯历史上规模最大的卫星家族,涵盖军用侦察、科学试验等多种用途。作为冷战时期空间部署的一环,其具体任务细节未公开,推测承担技术试验或情报收集任务,反映了当时苏联在航天领域的持续活动能力。

Basic Information
目录编号:
15292
目录名称:
COSMOS 1598
国际标识:
1984-100A
轨道中心:
EARTH
卫星名称:
COSMOS 1598
卫星全名:
--
卫星状态:
在轨 (已飞行15338 天)
发射日期:
1984-09-13 UTC
国别 :
俄罗斯(独联体) (CIS)
星等 :
--
This satellite is enrolled in the Space Conjunction Data Service (SCDS) and the current flight risk assessment level is: High Risk
Orbit Information
数据来源 国际轨道数据 AOE轨道数据
星历时间 2026-09-11T00:04:05+0800
23小时前
查看轨道信息
2026-09-09T22:00:00+0800
2天前
查看轨道信息
半长轴 7366.249km 7366.249km
偏心率 0.0033006 0.0033029
轨道倾角 82.943° 82.943°
近地点辐角 149.176° 152.384°
升交点赤经 109.517° 110.319°
平近点角 270.351° 300.669°
近地点 963.798km 963.782km
远地点 1012.426km 1012.442km
周期 104.865分钟 104.865分钟
每日圈数 13.731982 13.731982
Detailed Information
使用方式:
暂无
2D Orbit Map
3D Orbit Map
Orbit Altitude Analysis Chart
Orbit Inclination Analysis Chart
Orbit Comprehensive Analysis Chart
View Comprehensive Chart
Miss Distance Evolution Trend with All Objects
Collision Probability Evolution Trend with All Objects